{"data":{"norad_id":67115,"intl_designator":"2025-299P","name":"STARLINK-35892","alt_names":[],"object_type":"PAYLOAD","status":"ACTIVE","operator":null,"country":"US","launch_date":"2025-12-15","launch_site_code":"AFETR","launch_vehicle":null,"mission":null,"orbit_class":"UNKNOWN","rcs_meters":null,"size_class":null,"mass_kg":null,"dimensions":null,"purposes":["comms"],"wikipedia_slug":null,"has_3d_model":false,"image_url":null,"decayed_at":null,"tle_current":{"epoch":"2026-09-20T23:08:51.391680Z","epoch_age_seconds":38048,"freshness":"FRESH","line1":"1 67115U 25299P   26263.96448370  .00015298  00000+0  56412-3 0  9992","line2":"2 67115  42.9982 145.9517 0001120 261.0654  99.0071 15.27590746 42981","mean_motion":15.27590746,"eccentricity":0.000112,"inclination_deg":42.9982,"raan_deg":145.9517,"arg_perigee_deg":261.0654,"mean_anomaly_deg":99.0071,"bstar":0.00056412,"rev_number":4298,"period_min":94.266085584156,"perigee_km":482.24846959952,"apogee_km":483.78536807734,"semimajor_km":6861.1539188384,"source":"CELESTRAK","updated_at":"2026-09-21T09:00:36.106296Z"}}}